Regional Weather Roundup
Issued by NWS

Home | Current Version | Previous Version | Text Only | Print | Product List | Glossary On
Versions: 1 2 3 4 5 6 7 8 9 10 11 12 13 14 15 16 17 18 19 20 21 22 23 24 25 26 27 28 29 30 31 32 33 34 35 36 37 38 39 40 41 42 43 44 45 46 47 48 49 50
161
ASUS43 KBIS 041010
RWRND

NORTH DAKOTA REGIONAL WEATHER ROUNDUP
NATIONAL WEATHER SERVICE BISMARCK ND
400 AM CST SUN DEC 04 2016

NOTE: "FAIR" INDICATES FEW OR NO CLOUDS BELOW 12,000 FEET WITH NO
SIGNIFICANT WEATHER AND/OR OBSTRUCTIONS TO VISIBILITY.


NDZ001>003-009>011-017-041100-
NORTHWEST NORTH DAKOTA

CITY           SKY/WX    TMP DP  RH WIND       PRES   REMARKS
WILLISTON      LGT SNOW  33  30  88 W8        29.78S FOG
MINOT          CLOUDY    29  26  89 W22G28    29.71S WCI  15
MINOT AFB      CLOUDY    27  24  90 NW23      29.70S WCI  12
$$

NDZ018>021-031>035-040>046-041100-
SOUTHWEST NORTH DAKOTA

CITY           SKY/WX    TMP DP  RH WIND       PRES   REMARKS
BISMARCK       PTCLDY    32  29  88 W14       29.76S
DICKINSON      PTCLDY    24  20  84 W16       29.75F WCI  11
GARRISON         N/A     32  29  88 NW12      29.72S
HETTINGER ARPT CLEAR     20  16  84 W8        29.83S WCI  10
$$

NDZ004>008-012>016-024-026-027-054-041100-
NORTHEAST NORTH DAKOTA

CITY           SKY/WX    TMP DP  RH WIND       PRES   REMARKS
GRAND FORKS    MIX PCPN  34  31  88 S16       29.77F FOG
GRND FRKS AFB  LGT SNOW  33  32  96 S15       29.76F FOG
DEVILS LAKE    FLURRIES  31  29  92 SW12      29.70F
$$

NDZ022-023-025-028>030-036>039-047>053-041100-
SOUTHEAST NORTH DAKOTA

CITY           SKY/WX    TMP DP  RH WIND       PRES   REMARKS
FARGO          CLOUDY    35  31  85 S17G28    29.81F
JAMESTOWN      CLOUDY    31  28  89 S6        29.74F
$$





USA.gov is the U.S. government's official web portal to all federal, state and local government web resources and services.